ATLAS 5 CENTAUR DEB, 57590

Orbit data source: Space-Track

ATLAS 5 CENTAUR DEB, 57590 is space debris in HEO originally from a launch on Wed, 17 Oct 2018 UTC launched from the Air Force Eastern Test Range (AFETR). Debris objects in space refer to the collection of defunct objects orbiting the Earth. Examples of debris include non-operational satellites, rocket bodies, and fragments generated from explosions, collisions, or faulty payload assembly.

Loading next visibility...
Identifier
57590, 2018-079HR
Orbit
HEO
Country
Flag of USUS
Related business
Flag of USUnited Launch Alliance/Lockheed Martin (US)
Manufacturer
ULA Decatur
Mission
Spacecraft
Bus & Motor
Unknown
Mass
Unknown
Launch date (UTC)
2018-10-17 (7 years ago)
Launch vehicle
Unknown
Launch site
Air Force Eastern Test Range (AFETR)
Object type
Payload
Rocket body
Debris
Shape & HBR
Unknown shape, 1.1 m
Radar Cross Section
RCS unknown

Expand to show TLE details & history
Last TLE update: 2 weeks ago

TLE from 2 weeks ago
0 ATLAS 5 CENTAUR DEB
1 57590U 18079HR  25275.08156126 -.00000001  00000-0  00000+0 0  9992
2 57590  11.2000 106.7779 4972906 165.9786 215.6713  1.56219002 22429
Epoch: 2025-10-02T01:57Z
TLE epoch observation values (Epoch: 2025-10-02T01:57:26.892Z)
Latitude
-0.00002°
Longitude
66.44621°
Altitude
39,210.214 km
Speed
2.187 km/s
True Right ascension
07h 07m 25s
True Declination
0° 00' 00"
Sunlit
Object was in daylight at epoch
Visualization orbit readout
Latitude
Unknown
Longitude
Unknown
Altitude
Unknown
Speed
Unknown
Apparent Right ascension
Unknown
Apparent Declination
Unknown
Sunlit
N/A
Visualization observer readout
Local Sidereal Time
12:41:01
Azimuth
Unknown
Elevation
Unknown
Doppler factor
Unknown
Orbital elements
Apogee altitude
40,601.938 km
Perigee altitude
9,395.237 km
Semi-major axis
31,376.725 km
Eccentricity
0.49729
Inclination
11.2°
RAAN
106.7779°
Arg. of periapsis
165.9786°
True anomaly
194.07647°
Mean anomaly
215.6713°
Eccentric anomaly
204.05659°
Mean motion
0.39051 °/min
Orbital period
921.87 mins
BSTAR
0
Loading maneuver chart data...
Computing Atmospheric mass density...

Documentation

Showing up to 5 results
|